7 * 24
多渠道服务支持
TIANMU-1 17 是一颗由中国研制的遥感卫星,主要用于地球观测和空间科学实验。该卫星具备高分辨率成像能力,可应用于环境监测、资源调查和灾害预警等领域。它搭载了先进的光学传感器和数据传输系统,能够实现对地表目标的快速获取与实时回传。TIANMU-1 17 的成功发射,进一步提升了我国在遥感技术和空间应用方面的综合实力。
中国
(CN)
| 数据来源 | 国际轨道数据 |
| 星历时间: | 2025-12-13T08:26:44+0800 9小时前 查看轨道信息 |
| 半长轴: | 6870.476km |
| 偏心率: | 0.0003672 |
| 轨道倾角: | 97.460° |
| 近地点辐角 | 299.196° |
| 升交点赤经 | 168.286° |
| 平近点角 | 60.891° |
| 近地点: | 489.818km |
| 远地点: | 494.864km |
| 周期: | 94.458分钟 |
| 每日圈数: | 15.244829 |